| time (UTC) | temp C | wind direction | speed KPH | gust KPH | rain 1hr cm | rain 24hr cm | rain mn cm | humidity % | barometer mb |
| 20260508170100 | 18 | 194 | 0.0 | 6.4 | 0.00 | 0.28 | 0.00 | 54 | 1015.3 |
| 20260508164554 | 17 | 77 | 3.2 | 12.9 | 0.00 | 0.28 | 0.00 | 58 | 1015.5 |
| 20260508163055 | 17 | 326 | 3.2 | 11.3 | 0.00 | 0.28 | 0.00 | 53 | 1015.8 |
| 20260508161600 | 17 | 349 | 0.0 | 8.0 | 0.00 | 0.28 | 0.00 | 41 | 1015.9 |
| 20260508160055 | 17 | 11 | 3.2 | 12.9 | 0.00 | 0.28 | 0.00 | 42 | 1015.9 |
| 20260508154611 | 17 | 316 | 1.6 | 24.1 | 0.00 | 0.28 | 0.00 | 44 | 1015.9 |
| 20260508153057 | 16 | 301 | 4.8 | 11.3 | 0.00 | 0.28 | 0.00 | 43 | 1015.9 |
| 20260508151554 | 16 | 251 | 4.8 | 12.9 | 0.00 | 0.28 | 0.00 | 45 | 1016.2 |
| 20260508150108 | 16 | 329 | 1.6 | 11.3 | 0.00 | 0.28 | 0.00 | 53 | 1016.2 |
| 20260508144556 | 15 | 328 | 1.6 | 12.9 | 0.00 | 0.28 | 0.00 | 55 | 1016.2 |
| 20260508143124 | 15 | 334 | 1.6 | 11.3 | 0.00 | 0.28 | 0.00 | 60 | 1016.3 |
| 20260508141553 | 15 | 16 | 1.6 | 12.9 | 0.00 | 0.28 | 0.00 | 58 | 1016.3 |
| 20260508140107 | 14 | 334 | 4.8 | 11.3 | 0.00 | 0.28 | 0.00 | 60 | 1016.1 |
| 20260508134556 | 13 | 340 | 4.8 | 14.5 | 0.00 | 0.28 | 0.00 | 62 | 1016.1 |
| 20260508133104 | 13 | 317 | 6.4 | 16.1 | 0.00 | 0.28 | 0.00 | 70 | 1016.0 |
| 20260508131601 | 12 | 335 | 6.4 | 14.5 | 0.00 | 0.28 | 0.00 | 70 | 1016.1 |
| 20260508130054 | 12 | 344 | 6.4 | 12.9 | 0.00 | 0.28 | 0.00 | 72 | 1016.0 |
| 20260508124551 | 11 | 313 | 4.8 | 11.3 | 0.00 | 0.30 | 0.00 | 79 | 1015.9 |
| 20260508123054 | 11 | 340 | 3.2 | 12.9 | 0.00 | 0.30 | 0.00 | 79 | 1015.7 |
| 20260508121552 | 10 | 18 | 6.4 | 11.3 | 0.00 | 0.30 | 0.00 | 82 | 1015.6 |
| 20260508120052 | 10 | 353 | 4.8 | 11.3 | 0.00 | 0.30 | 0.00 | 83 | 1015.5 |
| 20260508114557 | 10 | 286 | 6.4 | 9.7 | 0.00 | 0.30 | 0.00 | 86 | 1015.3 |
| 20260508113056 | 9 | 305 | 3.2 | 9.7 | 0.00 | 0.30 | 0.00 | 89 | 1015.1 |
| 20260508111603 | 8 | 323 | 4.8 | 9.7 | 0.00 | 0.30 | 0.00 | 91 | 1014.9 |
| 20260508110056 | 8 | 297 | 3.2 | 6.4 | 0.00 | 0.30 | 0.00 | 93 | 1014.6 |
| 20260508104551 | 7 | 323 | 1.6 | 3.2 | 0.00 | 0.30 | 0.00 | 95 | 1014.5 |
| 20260508103054 | 7 | 308 | 1.6 | 3.2 | 0.00 | 0.30 | 0.00 | 95 | 1014.4 |
| 20260508101553 | 8 | 309 | 1.6 | 3.2 | 0.00 | 0.30 | 0.00 | 95 | 1014.2 |
| 20260508100054 | 8 | 274 | 3.2 | 6.4 | 0.00 | 0.30 | 0.00 | 95 | 1014.0 |
| 20260508094552 | 8 | 311 | 3.2 | 6.4 | 0.00 | 0.30 | 0.00 | 95 | 1013.9 |
| 20260508093054 | 8 | 271 | 1.6 | 8.0 | 0.00 | 0.30 | 0.00 | 97 | 1013.5 |
| 20260508091607 | 8 | 274 | 1.6 | 6.4 | 0.00 | 0.30 | 0.00 | 97 | 1013.3 |
| 20260508090055 | 8 | 1 | 1.6 | 6.4 | 0.00 | 0.30 | 0.00 | 97 | 1013.1 |
| 20260508084603 | 8 | 323 | 0.0 | 4.8 | 0.00 | 0.38 | 0.00 | 98 | 1013.0 |
| 20260508083103 | 8 | 311 | 1.6 | 4.8 | 0.00 | 0.38 | 0.00 | 98 | 1012.8 |
| 20260508081555 | 7 | 331 | 0.0 | 3.2 | 0.00 | 0.38 | 0.00 | 98 | 1012.6 |
| 20260508080106 | 7 | 330 | 1.6 | 4.8 | 0.00 | 0.38 | 0.00 | 97 | 1012.4 |
| 20260508074554 | 7 | 321 | 1.6 | 4.8 | 0.00 | 0.38 | 0.00 | 97 | 1012.4 |
| 20260508073056 | 8 | 0 | 0.0 | 4.8 | 0.00 | 0.38 | 0.00 | 97 | 1012.1 |
| 20260508071550 | 8 | 314 | 1.6 | 4.8 | 0.00 | 0.38 | 0.00 | 97 | 1011.9 |
| 20260508070057 | 7 | 340 | 1.6 | 4.8 | 0.00 | 0.38 | 0.00 | 97 | 1011.8 |
| 20260508064559 | 7 | 337 | 0.0 | 4.8 | 0.00 | 0.53 | 0.00 | 97 | 1011.5 |
| 20260508063054 | 8 | 311 | 1.6 | 3.2 | 0.00 | 0.53 | 0.00 | 97 | 1011.5 |
| 20260508061552 | 8 | 321 | 1.6 | 4.8 | 0.00 | 0.53 | 0.00 | 98 | 1011.6 |
| 20260508060052 | 8 | 329 | 1.6 | 4.8 | 0.00 | 0.53 | 0.00 | 98 | 1011.6 |
| 20260508054556 | 8 | 339 | 1.6 | 3.2 | 0.00 | 0.53 | 0.00 | 98 | 1011.6 |
| 20260508053059 | 8 | 323 | 0.0 | 1.6 | 0.00 | 0.53 | 0.00 | 98 | 1011.7 |
| 20260508051612 | 8 | 345 | 0.0 | 1.6 | 0.00 | 0.53 | 0.00 | 98 | 1011.8 |
| 20260508050111 | 8 | 337 | 0.0 | 1.6 | 0.00 | 0.53 | 0.00 | 98 | 1011.7 |
| 20260508044556 | 8 | 0 | 0.0 | 0.0 | 0.00 | 0.53 | 0.00 | 98 | 1011.6 |
| 20260508043105 | 9 | 0 | 0.0 | 3.2 | 0.00 | 0.53 | 0.00 | 98 | 1011.6 |
| 20260508041603 | 9 | 294 | 1.6 | 4.8 | 0.00 | 0.53 | 0.00 | 98 | 1011.4 |
| 20260508034552 | 9 | 324 | 1.6 | 8.0 | 0.00 | 0.53 | 0.53 | 98 | 1011.3 |
| 20260508033100 | 9 | 304 | 1.6 | 4.8 | 0.00 | 0.53 | 0.53 | 98 | 1011.3 |
| 20260508031555 | 8 | 0 | 0.0 | 0.0 | 0.00 | 0.53 | 0.53 | 97 | 1011.1 |
| 20260508030058 | 9 | 0 | 0.0 | 0.0 | 0.00 | 0.53 | 0.53 | 97 | 1011.0 |
| 20260508024556 | 9 | 0 | 0.0 | 0.0 | 0.00 | 0.53 | 0.53 | 96 | 1011.2 |
| 20260508023059 | 10 | 0 | 0.0 | 0.0 | 0.00 | 0.53 | 0.53 | 97 | 1011.3 |
| 20260508021601 | 10 | 0 | 0.0 | 0.0 | 0.00 | 0.53 | 0.53 | 97 | 1011.4 |
| 20260508020059 | 10 | 0 | 0.0 | 0.0 | 0.00 | 0.53 | 0.53 | 97 | 1011.3 |
| 20260508014555 | 10 | 0 | 0.0 | 0.0 | 0.00 | 0.53 | 0.53 | 96 | 1011.2 |
| 20260508013050 | 10 | 0 | 0.0 | 0.0 | 0.00 | 0.53 | 0.53 | 96 | 1011.0 |
| 20260508011553 | 10 | 0 | 0.0 | 0.0 | 0.00 | 0.53 | 0.53 | 96 | 1011.0 |
| 20260508010051 | 10 | 0 | 0.0 | 0.0 | 0.00 | 0.53 | 0.53 | 96 | 1010.7 |
| 20260508004554 | 10 | 0 | 0.0 | 0.0 | 0.00 | 0.53 | 0.53 | 96 | 1010.6 |
| 20260508003053 | 10 | 0 | 0.0 | 0.0 | 0.00 | 0.53 | 0.53 | 96 | 1010.3 |
| 20260508001556 | 10 | 0 | 0.0 | 0.0 | 0.00 | 0.53 | 0.53 | 96 | 1010.2 |
| 20260508000100 | 10 | 0 | 0.0 | 0.0 | 0.03 | 0.53 | 0.53 | 96 | 1009.9 |
| 20260507234603 | 10 | 0 | 0.0 | 0.0 | 0.08 | 0.53 | 0.53 | 96 | 1009.9 |
| 20260507233116 | 11 | 0 | 0.0 | 0.0 | 0.10 | 0.53 | 0.53 | 95 | 1010.1 |
| 20260507231557 | 11 | 0 | 0.0 | 0.0 | 0.10 | 0.53 | 0.53 | 95 | 1009.7 |
| 20260507230059 | 11 | 0 | 0.0 | 0.0 | 0.20 | 0.51 | 0.51 | 95 | 1009.7 |
| 20260507224556 | 11 | 0 | 0.0 | 0.0 | 0.18 | 0.46 | 0.46 | 95 | 1010.0 |
| 20260507223105 | 11 | 0 | 0.0 | 0.0 | 0.15 | 0.43 | 0.43 | 94 | 1010.2 |
| 20260507221556 | 11 | 0 | 0.0 | 0.0 | 0.18 | 0.43 | 0.43 | 94 | 1009.9 |
| 20260507220057 | 11 | 0 | 0.0 | 0.0 | 0.05 | 0.30 | 0.30 | 92 | 1010.1 |
| 20260507214603 | 11 | 0 | 0.0 | 1.6 | 0.03 | 0.28 | 0.28 | 90 | 1009.9 |
| 20260507213104 | 12 | 0 | 0.0 | 4.8 | 0.03 | 0.28 | 0.28 | 88 | 1010.1 |
| 20260507211604 | 12 | 0 | 0.0 | 0.0 | 0.00 | 0.25 | 0.25 | 88 | 1010.1 |
| 20260507210109 | 12 | 0 | 0.0 | 0.0 | 0.00 | 0.25 | 0.25 | 87 | 1009.6 |
| 20260507204554 | 12 | 0 | 0.0 | 0.0 | 0.00 | 0.25 | 0.25 | 85 | 1009.8 |
| 20260507203056 | 12 | 0 | 0.0 | 0.0 | 0.00 | 0.25 | 0.25 | 85 | 1010.0 |
| 20260507201600 | 12 | 0 | 0.0 | 0.0 | 0.00 | 0.25 | 0.25 | 84 | 1009.5 |
| 20260507200058 | 13 | 0 | 0.0 | 1.6 | 0.00 | 0.25 | 0.25 | 77 | 1009.6 |
| 20260507194600 | 13 | 0 | 0.0 | 1.6 | 0.00 | 0.25 | 0.25 | 77 | 1009.4 |
| 20260507193050 | 13 | 0 | 0.0 | 3.2 | 0.00 | 0.25 | 0.25 | 77 | 1009.7 |
| 20260507191558 | 13 | 294 | 0.0 | 3.2 | 0.00 | 0.25 | 0.25 | 78 | 1009.8 |
| 20260507190059 | 13 | 0 | 0.0 | 1.6 | 0.00 | 0.25 | 0.25 | 85 | 1009.9 |
| 20260507184555 | 13 | 338 | 0.0 | 0.0 | 0.00 | 0.25 | 0.25 | 84 | 1010.3 |
| 20260507183112 | 13 | 0 | 0.0 | 0.0 | 0.00 | 0.25 | 0.25 | 82 | 1010.7 |
| 20260507181559 | 13 | 300 | 0.0 | 3.2 | 0.00 | 0.25 | 0.25 | 81 | 1010.7 |
| 20260507180054 | 13 | 0 | 0.0 | 1.6 | 0.00 | 0.25 | 0.25 | 81 | 1010.5 |
| 20260507174605 | 13 | 0 | 0.0 | 3.2 | 0.00 | 0.30 | 0.25 | 82 | 1010.4 |
| 20260507173113 | 13 | 0 | 0.0 | 1.6 | 0.00 | 0.30 | 0.25 | 82 | 1010.6 |
| 20260507171554 | 13 | 0 | 0.0 | 8.0 | 0.00 | 0.30 | 0.25 | 82 | 1010.9 |